CAPE
0 0 0 0 0 0 0 0 0 0 0 0 0 0 0 0 0 0 0 0 0 0 0 0 0 0 0 0 0 0 0 0 0 0 0 0 0 0 0 0 0 0 0
0 0 0 0 0 0 0 0 0 0 0 0 0 0 0 0 0 0 0 0 0 0 0 0 0 0 0 0 0 0 0 0 0 0 0 0 0 0 0 0 0 0 0
0 0 0 0 0 0 0 0 0 0 0 0 0 0 0 0 0 0 0 0 0 0 0 0 0 0 0 0 0 0 0 0 0 0 0 0 0 0 0 0 0 0 0
0 0 0 0 0 0 0 0 0 0 0 0 0 0 0 0 0 0 0 0 0 0 0 0 0 0 0 0 0 0 0 0 0 0 0 0 0 0 0 0 0 0 0
0 0 0 0 0 0 0 0 0 0 0 0 0 0 0 0 0 0 0 0 0 0 0 0 0 0 0 0 0 0 0 0 0 0 0 0 0 0 0 0 0 0 0
0 0 0 0 0 0 0 0 0 0 0 0 0 0 0 0 0 0 0 0 0 0 0 0 0 0 0 0 0 0 0 0 0 0 0 0 0 0 0 0 0 0 0
0 0 0 0 0 0 0 0 0 0 0 0 0 0 0 0 0 0 0 0 0 0 0 0 0 0 0 0 0 0 0 0 0 0 0 0 0 0 0 0 0 0 0
0 0 0 0 0 0 0 0 0 0 0 0 0 0 0 0 0 0 0 0 0 0 0 0 0 0 0 0 0 0 0 0 0 0 0 0 0 0 0 0 1 0 0
0 0 0 0 0 0 0 0 0 0 0 0 0 0 0 0 0 0 0 0 0 0 0 0 0 0 0 0 0 0 0 0 0 0 0 0 0 1 1 0 0 0 0
0 0 0 0 0 0 0 0 0 0 0 0 0 0 0 0 0 0 3 0 0 0 0 0 0 0 0 0 0 0 0 0 0 0 0 2 5 0 0 0 0 0 0
0 0 0 0 0 0 0 0 0 0 0 0 0 0 0 0 0 0 4 0 0 0 0 0 0 0 0 2 3 0 0 0 1 0 0 0 0 0 0 0 0 0 0
0 0 0 0 0 0 0 0 0 0 0 0 0 0 0 0 0 0 1 23 1 0 0 0 0 0 1 4 6 2 4 1 0 0 0 0 0 0 0 0 0 0 0
0 0 0 0 0 0 0 0 0 1 0 0 0 0 0 0 0 0 3 9 4 0 0 0 0 0 2 15 15 8 5 0 0 0 0 0 0 0 0 0 0 0 0
0 0 0 0 0 0 0 0 0 4 2 1 1 0 0 0 0 0 0 2 6 2 0 0 2 4 10 5 7 9 0 0 0 0 0 0 0 0 0 0 0 0 0
0 0 0 0 0 0 0 0 1 5 8 3 1 0 0 0 0 1 1 2 0 0 0 0 2 3 3 0 0 0 0 0 0 0 0 0 0 0 0 0 0 0 0
0 0 0 0 0 1 1 1 2 7 8 18 23 14 0 3 6 11 13 12 14 10 0 0 0 0 0 0 0 0 0 0 0 0 0 0 0 0 0 0 0 0 0
0 0 2 4 3 3 4 3 2 0 4 11 18 17 27 10 4 21 20 19 41 20 0 0 0 0 0 0 0 0 0 0 0 0 0 0 0 0 0 0 0 0 0
0 0 1 1 1 3 3 3 3 6 3 3 5 3 13 27 27 18 27 23 10 18 0 0 0 0 0 0 0 0 0 0 0 0 0 0 0 0 0 0 0 0 0
0 0 0 0 0 0 3 0 1 4 4 7 2 1 1 31 29 13 29 7 0 1 0 0 0 0 0 0 0 0 0 0 0 0 0 0 0 0 0 0 0 0 0
0 1 1 0 0 0 0 0 2 3 2 3 0 0 0 7 13 0 5 3 0 0 0 0 0 0 0 0 0 0 0 0 0 0 0 0 0 0 0 0 0 0 0
0 0 0 0 0 0 0 0 0 3 3 0 0 0 7 10 0 0 1 0 0 0 0 0 0 0 0 0 0 0 0 0 0 0 0 0 0 0 0 0 0 0 0
0 0 0 0 0 0 0 0 0 3 0 0 0 0 16 5 0 0 0 0 0 0 0 0 0 0 0 0 0 0 0 0 0 0 0 0 0 0 0 0 0 0 0
0 0 0 0 0 0 0 0 0 0 0 0 0 0 0 0 0 0 0 0 0 0 0 0 0 0 0 0 0 0 0 0 0 0 0 0 0 0 0 0 0 0 0
0 0 0 0 0 0 0 0 0 0 0 0 0 0 0 0 0 0 0 0 0 0 0 0 0 0 0 0 0 0 0 0 0 0 0 0 0 0 0 0 0 0 0
0 0 0 0 0 0 0 0 0 0 0 0 0 0 0 0 0 0 0 0 0 0 0 0 0 0 0 0 0 0 0 0 0 0 0 0 0 0 0 0 0 0 0
0 0 0 0 0 0 0 0 0 0 0 0 0 0 0 0 0 0 0 0 0 0 0 0 0 0 0 0 0 0 0 0 0 0 0 0 0 0 0 0 0 0 0
CIN
-0 -0 -0 -0 -0 -0 -0 -0 -0 -0 -0 -0 -0 -0 -0 -0 -0 -0 -0 -0 -0 -0 -0 -0 -0 -0 -0 -0 -0 -0 -0 -0 -0 -0 -0 -0 -0 -0 -0 -0 -0 -0 -0
-0 -0 -0 -0 -0 -0 -0 -0 -0 -0 -0 -0 -0 -0 -0 -0 -0 -0 -0 -0 -0 -0 -0 -0 -0 -0 -0 -0 -0 -0 -0 -0 -0 -0 -0 -0 -0 -0 -0 -0 -0 -0 -0
-0 -0 -0 -0 -0 -0 -0 -0 -0 -0 -0 -0 -0 -0 -0 -0 -0 -0 -0 -0 -0 -0 -0 -0 -0 -0 -0 -0 -0 -0 -0 -0 -0 -0 -0 -0 -0 -0 -0 -0 -0 -0 -0
-0 -0 -0 -0 -0 -0 -0 -0 -0 -0 -0 -0 -0 -0 -0 -0 -0 -0 -0 -0 -0 -0 -0 -0 -0 -0 -0 -0 -0 -0 -0 -0 -0 -0 -0 -0 -0 -0 -0 -0 -0 -0 -0
-0 -0 -0 -0 -0 -0 -0 -0 -0 -0 -0 -0 -0 -0 -0 -0 -0 -0 -0 -0 -0 -0 -0 -0 -0 -0 -0 -0 -0 -0 -0 -0 -0 -0 -0 -0 -0 -0 -0 -0 -0 -0 -0
-0 -0 -0 -0 -0 -0 -0 -0 -0 -0 -0 -0 -0 -0 -0 -0 -0 -0 -0 -0 -0 -0 -0 -0 -0 -0 -0 -0 -0 -0 -0 -0 -0 -0 -0 -0 -0 -0 -0 -0 -0 -0 -0
-0 -0 -0 -0 -0 -0 -0 -0 -0 -0 -0 -0 -0 -0 -0 -0 -0 -0 -0 -0 -0 -0 -0 -0 -0 -0 -0 -0 -0 -0 -0 -0 -0 -0 -0 -0 -0 -0 -0 -0 -0 -0 -0
-0 -0 -0 -0 -0 -0 -0 -0 -0 -0 -0 -0 -0 -0 -0 -0 -0 -0 -0 -0 -0 -0 -0 -0 -0 -0 -0 -0 -0 -0 -0 -0 -0 -0 -0 -0 -0 -0 -0 -0 -0 -0 -0
-0 -0 -0 -0 -0 -0 -0 -0 -0 -0 -0 -0 -0 -0 -0 -0 -0 -0 -0 -0 -0 -0 -0 -0 -0 -0 -0 -0 -0 -0 -0 -0 -0 -0 -0 -0 -0 -0 -0 -0 -0 -0 -0
-0 -0 -0 -0 -0 -0 -0 -0 -0 -0 -0 -0 -0 -0 -0 -0 -0 -0 -0 -0 -0 -0 -0 -0 -0 -0 -0 -0 -0 -0 -0 -0 -0 -0 -0 -0 -0 -0 -0 -0 -0 -0 -0
-0 -0 -0 -0 -0 -0 -0 -0 -0 -0 -0 -0 -0 -0 -0 -0 -0 -0 -0 -0 -0 -0 -0 -0 -0 -0 -0 -0 -0 -0 -0 -0 -0 -0 -0 -0 -0 -0 -0 -0 -0 -0 -0
-0 -0 -0 -0 -0 -0 -0 -0 -0 -0 -0 -0 -0 -0 -0 -0 -0 -0 -0 -0 -0 -0 -0 -0 -0 -0 -0 -0 -0 -0 -0 -0 -0 -0 -0 -0 -0 -0 -0 -0 -0 -0 -0
-0 -0 -0 -0 -0 -0 -0 -0 -0 -0 -0 -0 -0 -0 -0 -0 -0 -0 -0 -0 -0 -0 -0 -0 -0 -0 -0 -0 -0 -0 -0 -0 -0 -0 -0 -0 -0 -0 -0 -0 -0 -0 -0
-0 -0 -0 -0 -0 -0 -0 -0 -0 -0 -0 -0 -0 -0 -0 -0 -0 -0 -0 -0 -0 -0 -0 -0 -0 -0 -0 -0 -1 -0 -0 -0 -0 -0 -0 -0 -0 -0 -0 -0 -0 -0 -0
-0 -0 -0 -0 -0 -0 -0 -0 -0 -0 -0 -0 -1 -0 -0 -0 -0 -0 -0 -0 -0 -0 -0 -0 -0 -0 -0 -0 -0 -0 -0 -0 -0 -0 -0 -0 -0 -0 -0 -0 -0 -0 -0
-0 -0 -0 -0 -0 -0 -0 -0 -0 -0 -0 -0 -0 -0 -0 -0 -0 -0 -0 -0 -0 -0 -0 -0 -0 -0 -0 -0 -0 -0 -0 -0 -0 -0 -0 -0 -0 -0 -0 -0 -0 -0 -0
-0 -0 -0 -0 -0 -0 -0 -0 -0 -0 -0 -0 -0 -0 -0 -0 -0 -0 -0 -0 -0 -0 -0 -0 -0 -0 -0 -0 -0 -0 -0 -0 -0 -0 -0 -0 -0 -0 -0 -0 -0 -0 -0
-0 -0 -0 -0 -0 -0 -0 -0 -0 -0 -0 -1 -1 -0 -0 -0 -0 -0 -0 -0 -0 -0 -0 -0 -0 -0 -0 -0 -0 -0 -0 -0 -0 -0 -0 -0 -0 -0 -0 -0 -0 -0 -0
-0 -0 -0 -0 -0 -0 -0 -1 -0 -0 -0 -0 -2 -0 -0 -0 -0 -0 -0 -0 -0 -1 -0 -0 -0 -0 -0 -0 -0 -0 -0 -0 -0 -0 -0 -0 -0 -0 -0 -0 -0 -0 -0
-0 -0 -0 -0 -0 -0 -0 -0 -0 -0 -0 -0 -0 -0 -0 -0 -0 -0 -0 -0 -0 -0 -0 -0 -0 -0 -0 -0 -0 -0 -0 -0 -0 -0 -0 -0 -0 -0 -0 -0 -0 -0 -0
-0 -0 -0 -0 -0 -0 -0 -0 -0 -0 -0 -0 -0 -0 -0 -0 -0 -0 -0 -0 -0 -0 -0 -0 -0 -0 -0 -0 -0 -0 -0 -0 -0 -0 -0 -0 -0 -0 -0 -0 -0 -0 -0
-0 -0 -0 -0 -0 -0 -0 -0 -0 -0 -0 -0 -0 -0 -0 -0 -0 -0 -0 -0 -0 -0 -0 -0 -0 -0 -0 -0 -0 -0 -0 -0 -0 -0 -0 -0 -0 -0 -0 -0 -0 -0 -0
-0 -0 -0 -0 -0 -0 -0 -0 -0 -0 -0 -0 -0 -0 -0 -0 -0 -0 -0 -0 -0 -0 -0 -0 -0 -0 -0 -0 -0 -0 -0 -0 -0 -0 -0 -0 -0 -0 -0 -0 -0 -0 -0
-0 -0 -0 -0 -0 -0 -0 -0 -0 -0 -0 -0 -0 -0 -0 -0 -0 -0 -0 -0 -0 -0 -0 -0 -0 -0 -0 -0 -0 -0 -0 -0 -0 -0 -0 -0 -0 -0 -0 -0 -0 -0 -0
-0 -0 -0 -0 -0 -0 -0 -0 -0 -0 -0 -0 -0 -0 -0 -0 -0 -0 -0 -0 -0 -0 -0 -0 -0 -0 -0 -0 -0 -0 -0 -0 -0 -0 -0 -0 -0 -0 -0 -0 -0 -0 -0
-0 -0 -0 -0 -0 -0 -0 -0 -0 -0 -0 -0 -0 -0 -0 -0 -0 -0 -0 -0 -0 -0 -0 -0 -0 -0 -0 -0 -0 -0 -0 -0 -0 -0 -0 -0 -0 -0 -0 -0 -0 -0 -0
Wind_Speed
14 11 8 8 7 6 8 9 9 8 10 11 14 14 14 15 15 15 15 15 17 14 12 13 12 11 8 7 6 6 6 4 4 3 3 5 6 5 3 3 4 5 5
15 14 11 10 7 8 10 10 9 11 10 12 13 14 15 16 16 19 18 15 18 18 16 14 14 9 12 11 8 10 8 7 4 6 4 5 5 4 3 4 3 4 7
14 14 16 15 12 10 10 10 9 11 12 12 13 15 16 17 17 18 19 18 18 17 17 18 17 17 14 11 11 11 9 8 7 5 4 3 2 2 2 3 4 6 7
12 11 12 14 15 15 12 10 9 10 12 13 14 15 16 16 17 17 18 18 18 17 18 18 18 20 19 18 14 13 10 9 8 6 5 4 4 5 4 4 4 4 8
12 10 12 11 12 12 12 12 10 8 12 13 13 14 15 16 14 18 18 19 19 17 16 16 17 19 26 22 14 15 14 10 9 9 6 5 6 6 7 4 5 5 9
11 11 10 12 13 13 13 12 11 10 11 12 13 15 16 13 24 30 23 18 17 18 17 16 15 19 25 30 28 26 21 16 14 9 10 9 11 8 7 7 6 5 4
11 12 11 11 15 15 14 14 11 12 12 14 14 15 16 17 26 29 31 16 18 19 18 16 14 13 18 17 25 24 24 26 20 14 13 12 11 11 9 9 8 6 5
10 11 12 14 16 15 15 15 15 10 12 12 14 15 14 14 25 27 28 18 18 19 20 20 20 18 20 19 18 16 16 16 16 12 11 10 9 10 10 7 5 4 5
11 12 13 13 15 15 15 16 16 14 12 11 11 13 14 15 25 26 25 20 16 18 18 19 19 19 28 31 18 16 14 13 19 21 15 13 14 15 12 5 3 2 1
11 12 13 13 15 16 16 15 14 13 15 11 12 12 15 14 22 25 26 14 15 13 15 17 24 21 32 34 18 18 17 15 13 12 11 14 13 6 8 6 5 4 3
9 12 13 12 14 15 16 15 15 14 13 12 14 12 12 11 14 25 32 18 13 12 12 12 13 31 34 35 25 15 15 13 17 9 7 5 5 6 5 6 7 6 5
10 13 14 14 12 13 16 16 16 14 14 14 13 11 8 10 16 25 30 32 22 14 13 10 11 32 32 34 26 22 22 17 9 9 8 7 7 6 5 6 6 5 5
11 16 17 16 14 13 14 16 14 13 10 11 10 9 10 8 10 25 27 30 29 15 10 16 22 31 30 28 29 25 21 9 9 8 8 8 7 6 6 5 3 3 4
14 17 17 17 17 16 12 12 12 12 11 11 10 11 10 9 9 9 12 14 22 18 18 13 17 22 22 19 19 20 11 10 11 9 8 6 5 5 5 5 4 2 2
16 18 18 14 16 16 14 12 12 14 14 12 12 10 10 10 11 15 15 12 12 14 14 11 11 13 12 10 8 10 10 10 9 8 7 7 6 5 5 4 3 2 2
18 15 14 13 13 13 14 15 23 29 33 32 31 23 10 23 20 22 27 27 24 31 14 14 13 15 13 14 12 11 8 10 8 8 8 7 8 6 5 3 1 2 3
18 17 14 15 13 13 13 13 15 15 28 30 28 29 30 20 21 21 26 28 27 31 12 13 15 13 12 12 11 10 9 8 10 8 8 8 7 6 6 3 2 3 4
18 22 15 13 13 13 13 13 12 13 14 11 17 22 25 26 23 21 24 23 15 23 12 12 13 13 12 12 11 11 10 9 9 8 8 8 7 6 5 4 3 3 4
15 13 14 13 13 15 14 13 13 14 14 14 9 13 14 22 23 21 24 12 11 14 11 9 11 12 11 11 10 9 12 10 9 7 7 7 7 5 4 3 3 5 6
15 20 19 13 13 13 12 13 12 13 13 13 8 8 7 8 10 10 10 10 8 9 10 11 9 9 10 10 10 10 9 10 8 5 5 6 6 5 4 4 4 4 5
11 12 17 13 13 12 12 12 12 11 12 7 7 7 15 9 8 8 7 8 7 10 10 10 9 8 8 9 9 9 8 7 7 6 5 5 5 4 5 4 3 4 6
11 11 11 12 12 12 12 12 11 11 7 7 6 6 18 6 5 5 6 8 9 9 9 10 9 7 8 9 10 9 9 8 7 7 6 5 4 4 3 3 3 5 6
10 11 11 10 9 10 7 5 3 3 4 5 4 2 3 6 9 8 9 9 9 10 9 9 10 8 6 7 7 7 8 7 6 6 6 5 4 4 3 4 5 6 6
10 10 9 9 7 7 6 6 6 7 6 6 6 6 7 6 10 10 9 9 10 10 10 10 9 10 9 7 5 4 4 5 4 5 6 4 4 4 4 5 6 7 8
9 9 9 9 8 8 8 8 8 8 8 7 7 8 8 8 9 10 9 9 10 10 11 9 8 10 10 10 7 6 5 8 6 6 4 5 6 6 5 5 7 7 9
9 9 9 9 9 9 8 8 8 8 8 8 8 8 8 9 9 10 9 10 9 9 10 7 8 10 10 7 6 6 7 8 7 10 6 6 6 6 6 8 9 7 9
Wind_Direction
3 345 306 282 254 241 223 222 225 204 192 192 194 199 203 198 191 194 197 188 191 186 187 187 185 170 177 179 177 176 180 170 164 159 192 177 202 206 224 282 269 278 277
352 349 344 313 272 251 244 238 218 213 203 200 201 200 199 203 199 196 195 194 194 188 185 182 183 170 177 177 181 188 185 179 155 177 181 197 194 218 264 276 287 283 291
348 347 345 347 335 298 268 251 226 225 214 208 201 204 205 201 204 205 202 195 199 199 188 186 182 176 179 179 182 179 184 179 179 159 175 233 265 327 314 313 317 312 299
344 343 341 342 336 331 310 282 249 229 230 221 216 210 209 200 205 207 206 203 198 199 193 193 187 185 182 176 181 186 177 179 173 176 186 199 246 251 241 278 283 261 279
335 338 333 333 332 332 320 297 270 239 236 227 223 222 217 206 202 201 203 207 201 198 197 197 192 191 187 182 175 179 172 175 172 174 193 186 195 206 202 195 243 270 270
333 323 330 329 333 332 324 318 308 279 254 244 229 224 223 222 217 207 196 202 210 200 194 197 195 189 189 187 188 182 177 171 177 174 189 205 206 203 193 202 220 229 258
321 329 329 330 331 330 327 320 309 293 271 250 241 232 227 230 224 216 204 199 200 201 199 192 190 190 188 186 193 189 191 192 186 180 187 195 190 196 198 198 209 226 246
322 329 329 333 325 320 324 320 308 288 261 253 246 242 234 235 229 222 212 206 203 201 198 194 193 185 186 180 181 185 189 196 193 190 196 196 190 187 201 199 194 221 266
316 319 321 323 315 314 312 309 308 298 285 264 254 249 240 239 232 221 215 207 213 209 196 193 193 187 187 182 177 178 185 196 196 197 198 200 209 209 201 165 193 181 263
307 313 315 312 304 306 305 296 295 289 279 275 264 244 240 237 233 225 214 214 218 209 199 191 198 189 186 183 179 177 184 185 181 189 195 204 216 199 211 213 172 181 176
300 308 303 298 297 299 298 298 288 287 285 275 265 255 243 232 229 229 223 214 198 203 200 197 190 191 188 187 179 184 185 163 180 176 175 164 192 210 215 210 190 181 175
292 294 292 294 294 294 291 290 287 280 276 275 271 268 246 233 226 229 227 222 201 195 200 200 198 189 194 186 178 182 182 164 164 156 161 185 209 213 208 207 192 200 217
290 294 295 294 288 283 282 287 287 274 263 269 263 260 259 237 231 229 238 233 203 197 191 193 188 191 189 188 178 175 180 156 162 156 172 191 195 188 193 203 207 230 252
289 291 293 292 293 290 282 277 278 273 266 260 253 247 242 225 223 222 224 232 211 192 185 182 185 190 182 180 178 177 155 157 163 167 171 168 161 189 206 202 193 197 258
287 290 290 285 284 285 274 274 275 275 261 262 258 251 244 237 225 215 214 220 188 176 157 162 174 177 177 175 165 136 141 147 151 155 156 154 179 192 209 210 194 188 223
289 289 285 286 284 282 283 284 271 274 274 259 256 253 239 246 247 221 222 220 192 171 165 169 176 180 168 167 157 151 156 149 152 152 155 172 179 184 194 210 218 247 267
284 286 284 280 278 277 276 277 285 283 279 272 260 260 248 239 234 231 225 216 200 177 183 177 177 175 167 164 158 156 158 159 148 158 165 174 175 170 180 188 220 258 281
281 280 279 277 274 271 272 269 271 276 282 266 256 259 262 243 226 219 225 218 188 188 186 182 171 164 155 156 156 158 146 149 157 171 164 169 167 168 171 188 213 261 284
283 278 275 272 270 269 268 270 268 265 267 271 260 261 271 245 236 204 216 226 204 184 170 174 162 156 161 159 156 148 146 152 157 170 167 161 161 166 180 198 224 253 277
279 275 271 272 272 271 266 263 261 260 262 259 249 250 247 235 228 188 201 214 220 172 158 154 151 153 150 148 141 138 135 136 147 172 168 164 159 171 177 201 224 263 282
283 280 274 272 266 263 262 259 259 259 258 244 245 238 235 234 202 182 190 194 141 145 143 128 130 133 130 130 129 127 132 140 154 164 172 169 160 172 197 215 241 253 262
282 280 280 277 276 268 261 254 252 253 243 243 246 237 252 236 164 151 96 97 108 110 114 116 113 119 127 135 133 135 145 154 155 172 175 173 176 197 193 228 250 259 262
303 302 300 296 290 290 289 291 265 249 240 247 248 278 53 88 88 91 96 98 98 102 100 106 111 108 108 109 125 139 149 161 170 163 169 179 191 201 192 235 246 252 262
321 321 323 328 336 347 355 5 13 38 67 64 62 67 74 78 93 91 92 93 92 91 96 100 104 116 117 116 113 116 119 131 146 170 171 182 204 207 217 231 243 249 261
345 344 347 350 355 2 9 20 30 38 47 54 62 68 74 82 87 92 92 94 96 95 93 101 107 120 124 128 136 158 174 178 175 177 179 202 225 225 231 236 249 253 265
358 5 5 3 5 9 16 22 29 35 42 46 56 66 74 80 83 87 87 89 91 91 97 99 115 119 127 135 157 172 192 199 199 204 191 206 222 237 231 235 242 260 266